Location: Aalen
(48.8330°N, 10.1000°E)
Time: 06:02:10
(UTC+02:00)

UWE-3 - Pass Details

Date: 01 April 2023
Orbit: 576 x 670 km, 97.7° (Epoch: 29 May)

Event Time Altitude Azimuth Distance (km) Brightness Sun altitude
Rises 05:10:51 0° 6° (N) 2,990 ? -17.5°
Reaches altitude 10° 05:13:14 10° 358° (N) 2,061 ? -17.2°
Maximum altitude 05:17:17 34° 293° (WNW) 1,044 ? -16.6°
Enters shadow 05:18:30 29° 260° (W) 1,162 ? -16.4°
